Regional Weather Roundup
Issued by NWS Newport/Morehead, NC

Current Version | Previous Version | Graphics & Text | Print | Product List | Glossary Off
Versions: 1 2 3 4 5 6 7 8 9 10 11 12 13 14 15 16 17 18 19 20 21 22 23 24 25 26 27 28 29 30 31 32 33 34 35 36 37 38 39 40 41 42 43 44 45 46 47 48 49 50

000
ASUS42 KMHX 160513
RWRMHX
WEATHER ROUNDUP FOR EASTERN NORTH CAROLINA
NATIONAL WEATHER SERVICE NEWPORT/MOREHEAD CITY NC
1200 AM EST MON JAN 16 2017

NOTE: "FAIR" INDICATES FEW OR NO CLOUDS BELOW 12,000 FEET
WITH NO SIGNIFICANT WEATHER AND/OR OBSTRUCTIONS TO VISIBILITY

NCZ015>017-031-032-045>047-102-103-160600-
NORTH COAST

CITY           SKY/WX    TMP DP  RH WIND       PRES   REMARKS
EDENTON        CLOUDY    43  37  79 CALM      30.42R
ELIZABETH CITY CLOUDY    41  36  82 N8        30.42R
KITTY HAWK     NOT AVBL
MANTEO         CLOUDY    43  36  77 NE6       30.40R

$$

NCZ045>047-081-094-103-104-160600-
CENTRAL COAST

CITY           SKY/WX    TMP DP  RH WIND       PRES   REMARKS
FRISCO         CLOUDY    46  40  79 NE8       30.37S

$$

NCZ095-097-098-100-101-160600-
SOUTHERN COAST

CITY           SKY/WX    TMP DP  RH WIND       PRES   REMARKS
BEAUFORT       CLOUDY    45  41  86 NE8       30.38R
CEDAR ISLAND   NOT AVBL
JACKSONVILLE   CLOUDY    47  42  83 E9        30.37S
PINEY ISLAND   CLOUDY   N/A N/A N/A NE10      30.38S
WILMINGTON     CLOUDY    50  44  80 NE8       30.35R


$$

NCZ011>013-027>030-043-044-078>080-089-090>093-098-160600-
COASTAL PLAIN

CITY           SKY/WX    TMP DP  RH WIND       PRES   REMARKS
AHOSKIE          N/A     42  24  50 E3        30.41F
CLINTON        PTCLDY    50  46  87 E3        30.37R
ELIZABETHTOWN  MOCLDY    49  46  88 E5        30.34F
GOLDSBORO      CLOUDY    48  44  85 E8        30.36R
GREENVILLE     DRIZZLE   45  43  93 E3        30.39S
HAVELOCK       CLOUDY    45  41  86 E3        30.39S
KENANSVILLE    CLOUDY    48  43  81 E5        30.37S
KINSTON        CLOUDY    47  41  80 E6        30.39S
NEW BERN       CLOUDY    44  40  85 NE6       30.39R
RICHLANDS      CLOUDY    46  42  86 NE7       30.38S
ROCKY MOUNT    CLOUDY    46  39  76 VRB3      30.38F
WASHINGTON     LGT RAIN  42  39  91 E5        30.39S
WHITEVILLE     CLOUDY    51  46  84 NE8       30.33S

$$

AMZ130-135-150-152-154-156-158-170-250-252-270-ANZ085-086-088-633-658-670-160600-
MARINE OBSERVATIONS

STATION/POSITION TIME  TEMP    WIND        PRES    WAVE   SWELL
                       AIR SEA DIR/SP/G            HT/PER HT/PER
                 (UTC) (F)     (DEG/KT/KT) (MB)    (FT/S) (FT/S)
CHESAPEAKE LIGHT NOT AVBL
64 E VA BEACH    0450   49 64   40/ 12/ 16 1028.4    4/11   3/11
DUCK             0436   44 44   20/ 11/ 12 1028.6
2 E DUCK         0500      45                N/A     3/ 6
OREGON INLET     0436   45 50   10/  7/ 10 1028.8
13E OREGON INLT  NOT AVBL
HATTERAS CG      0436   45 54  360/ 16/ 19 1028.2
DIAMOND BUOY     0450   53 74   10/ 16/ 19 1027.6    4/ 8   3/ 8
CAPE LOOKOUT     0500   46      10/  9/ 11 1027.8
BEAUFORT LAB     0436   44 50   30/  9/ 12 1027.4
30 SE NEW RVR IN 0408   51 65   40/ 14/ 19 1027.3
30 SE NEW RVR IN 0443      65                N/A     4/11   2/11
27 SE WRIGHTSVLE 0408   58 71   70/ 16/ 21 1026.3
5 SE WRIGHTSVLE  0408   52      70/ 12/ 17 1027.1
225 S CAPE HAT   0450   69 71   70/  8/ 10 1025.7    4/ 8   5/ 8
41 SE CHARLESTON 0450   69 71  110/  2/  4 1025.3    3/10   3/10

$$



USA.gov is the U.S. government's official web portal to all federal, state and local government web resources and services.